Weather History for KGED - March, 2014

Change the Weather History Date:

Friday, March 28, 2014

  Actual Average Record
Temperature  
Mean Temperature 54 °F 48 °F  
Max Temperature 68 °F 58 °F 80 °F (1960)
Min Temperature 40 °F 38 °F 20 °F (1966)
Degree Days  
Heating Degree Days 11 17  
Month to date heating degree days 705 584  
Since 1 July heating degree days 4060 3864  
Cooling Degree Days 0 0  
Month to date cooling degree days 0 0  
Year to date cooling degree days 0 0  
Growing Degree Days 2 (Base 50)    
Moisture  
Dew Point 44 °F    
Average Humidity 64    
Maximum Humidity 76    
Minimum Humidity 52    
Precipitation  
Precipitation T in 0.15 in 1.30 in (1983)
Month to date precipitation 1.72 3.58  
Year to date precipitation 8.90 9.29  
Sea Level Pressure  
Sea Level Pressure 30.14 in    
Wind  
Wind Speed 16 mph (SSW)    
Max Wind Speed 32 mph    
Max Gust Speed 42 mph    
Visibility 10 miles    
Events      
T = Trace of Precipitation, MM = Missing Value Source: NWS Daily Summary

Daily Weather History Graph

Daily Weather History Graph

Search for Another Location

Airport or City:

Trip Planner

Search our weather history database for the weather conditions in past years. The results will help you decide how hot, cold, wet, or windy it might be!

Date:

Astronomy

Mar. 28, 2014 Rise Set
Actual Time 6:52 AM EDT 7:21 PM EDT
Civil Twilight 6:25 AM EDT 7:47 PM EDT
Nautical Twilight 5:54 AM EDT 8:19 PM EDT
Astronomical Twilight 5:22 AM EDT 8:51 PM EDT
Moon 5:20 AM EDT (3/28) 5:16 PM EDT (3/28)
Length of Visible Light 13h 21m
Length of Day
12h 28m
Waning Crescent, 6% of the Moon is Illuminated
Mar 28
Waning Crescent
Mar 30
New
Apr 7
First Quarter
Apr 15
Full
Apr 22
Last Quarter

Hourly Weather History & Observations

Time (EDT) Temp. Windchill Dew Point Humidity Pressure Visibility Wind Dir Wind Speed Gust Speed Precip Events Conditions
12:54 AM 39.9 °F 33.4 °F 28.9 °F 65% 30.28 in 10.0 mi South 10.4 mph - N/A   Clear
1:54 AM 39.9 °F 33.4 °F 28.9 °F 65% 30.25 in 10.0 mi South 10.4 mph - N/A   Clear
2:54 AM 41.0 °F 33.5 °F 30.9 °F 67% 30.22 in 10.0 mi South 13.8 mph - N/A   Clear
3:54 AM 41.0 °F 34.7 °F 33.1 °F 73% 30.20 in 10.0 mi South 10.4 mph - N/A   Clear
4:54 AM 42.1 °F 37.1 °F 35.1 °F 76% 30.18 in 10.0 mi South 8.1 mph - N/A   Clear
5:54 AM 44.1 °F 39.0 °F 37.9 °F 79% 30.17 in 10.0 mi SSW 9.2 mph - N/A   Clear
6:54 AM 51.1 °F - 42.1 °F 71% 30.17 in 10.0 mi SSW 17.3 mph - N/A   Clear
7:54 AM 52.0 °F - 43.0 °F 71% 30.17 in 10.0 mi SSW 18.4 mph 26.5 mph N/A   Clear
8:54 AM 55.9 °F - 45.0 °F 67% 30.17 in 10.0 mi SSW 20.7 mph 28.8 mph N/A   Clear
9:54 AM 57.9 °F - 46.0 °F 65% 30.16 in 10.0 mi SSW 19.6 mph 24.2 mph N/A   Clear
10:54 AM 62.1 °F - 46.9 °F 58% 30.15 in 10.0 mi SW 21.9 mph 29.9 mph N/A   Scattered Clouds
11:54 AM 64.0 °F - 46.9 °F 54% 30.14 in 10.0 mi SW 23.0 mph 34.5 mph N/A   Mostly Cloudy
12:54 PM 64.0 °F - 48.0 °F 56% 30.13 in 10.0 mi SSW 20.7 mph 33.4 mph 0.00 in   Overcast
1:54 PM 64.9 °F - 48.0 °F 54% 30.09 in 10.0 mi SSW 23.0 mph 29.9 mph N/A   Overcast
2:54 PM 66.0 °F - 48.9 °F 54% 30.06 in 10.0 mi SW 19.6 mph 27.6 mph N/A   Mostly Cloudy
3:54 PM 66.0 °F - 48.0 °F 52% 30.06 in 10.0 mi SW 20.7 mph 32.2 mph 0.00 in   Mostly Cloudy
4:54 PM 66.9 °F - 48.9 °F 52% 30.05 in 10.0 mi SSW 18.4 mph 26.5 mph N/A   Overcast
5:54 PM 66.9 °F - 48.9 °F 52% 30.05 in 10.0 mi SSW 17.3 mph - N/A   Overcast
6:54 PM 64.9 °F - 48.9 °F 56% 30.08 in 10.0 mi SW 12.7 mph - N/A   Overcast
7:54 PM 64.0 °F - 48.9 °F 58% 30.09 in 10.0 mi SSW 11.5 mph - N/A   Overcast
8:54 PM 63.0 °F - 50.0 °F 63% 30.09 in 10.0 mi South 11.5 mph - N/A   Overcast
9:54 PM 62.1 °F - 50.0 °F 65% 30.10 in 10.0 mi SSW 11.5 mph - N/A   Overcast
10:54 PM 62.1 °F - 51.1 °F 67% 30.10 in 10.0 mi SSW 9.2 mph - N/A   Overcast
11:54 PM 63.0 °F - 54.0 °F 72% 30.12 in 10.0 mi SSW 11.5 mph - N/A   Overcast